TimeEST,TemperatureF,Dew PointF,Humidity,Sea Level PressureIn,VisibilityMPH,Wind Direction,Wind SpeedMPH,Gust SpeedMPH,PrecipitationIn,Events,Conditions,WindDirDegrees,DateUTC
12:15 AM,24.8,23.0,93,30.31,10.0,SSE,3.5,-,N/A,,Clear,160,2013-03-09 05:15:00
12:34 AM,24.8,24.8,100,30.31,10.0,South,5.8,-,N/A,,Clear,180,2013-03-09 05:34:00
12:54 AM,24.8,21.2,86,30.31,10.0,South,3.5,-,N/A,,Clear,190,2013-03-09 05:54:00
1:15 AM,24.8,21.2,86,30.30,10.0,Calm,Calm,-,N/A,,Scattered Clouds,0,2013-03-09 06:15:00
1:34 AM,24.8,21.2,86,30.30,4.0,South,4.6,-,N/A,,Scattered Clouds,180,2013-03-09 06:34:00
1:55 AM,24.8,24.8,100,30.29,10.0,South,5.8,-,N/A,,Scattered Clouds,180,2013-03-09 06:55:00
2:15 AM,26.6,24.8,93,30.30,10.0,South,6.9,-,N/A,,Mostly Cloudy,180,2013-03-09 07:15:00
2:34 AM,26.6,26.6,100,30.30,10.0,South,6.9,-,N/A,,Overcast,190,2013-03-09 07:34:00
2:55 AM,26.6,26.6,100,30.28,10.0,South,8.1,-,N/A,,Overcast,180,2013-03-09 07:55:00
3:15 AM,28.4,26.6,93,30.28,10.0,South,6.9,-,N/A,,Overcast,190,2013-03-09 08:15:00
3:34 AM,28.4,26.6,93,30.28,10.0,South,8.1,-,N/A,,Overcast,190,2013-03-09 08:34:00
3:55 AM,28.4,26.6,93,30.27,10.0,South,8.1,-,N/A,,Overcast,190,2013-03-09 08:55:00
4:14 AM,28.4,26.6,93,30.26,10.0,South,8.1,-,N/A,,Overcast,180,2013-03-09 09:14:00
4:34 AM,28.4,26.6,93,30.25,10.0,South,8.1,-,N/A,,Overcast,190,2013-03-09 09:34:00
4:55 AM,28.4,26.6,93,30.26,10.0,South,6.9,-,N/A,,Overcast,180,2013-03-09 09:55:00
5:14 AM,28.4,26.6,93,30.26,10.0,South,6.9,-,N/A,,Mostly Cloudy,180,2013-03-09 10:14:00
5:34 AM,28.4,26.6,93,30.26,10.0,South,8.1,-,N/A,,Mostly Cloudy,180,2013-03-09 10:34:00
5:55 AM,28.4,26.6,93,30.25,10.0,South,6.9,-,N/A,,Overcast,170,2013-03-09 10:55:00
6:14 AM,28.4,26.6,93,30.25,10.0,SSE,5.8,-,N/A,,Overcast,160,2013-03-09 11:14:00
6:34 AM,26.6,26.6,100,30.26,10.0,SE,3.5,-,N/A,,Overcast,140,2013-03-09 11:34:00
6:55 AM,26.6,24.8,93,30.25,10.0,SE,4.6,-,N/A,,Overcast,130,2013-03-09 11:55:00
7:14 AM,26.6,24.8,93,30.25,10.0,SE,6.9,-,N/A,,Overcast,140,2013-03-09 12:14:00
7:35 AM,28.4,26.6,93,30.25,10.0,SSE,6.9,-,N/A,,Overcast,160,2013-03-09 12:35:00
7:55 AM,28.4,26.6,93,30.25,10.0,South,4.6,-,N/A,,Overcast,170,2013-03-09 12:55:00
8:14 AM,28.4,26.6,93,30.25,10.0,South,4.6,-,N/A,,Mostly Cloudy,170,2013-03-09 13:14:00
8:35 AM,28.4,26.6,93,30.25,10.0,SE,4.6,-,N/A,,Clear,140,2013-03-09 13:35:00
8:55 AM,30.2,26.6,86,30.23,10.0,SE,6.9,-,N/A,,Clear,140,2013-03-09 13:55:00
9:14 AM,30.2,26.6,86,30.23,10.0,SSE,9.2,-,N/A,,Clear,160,2013-03-09 14:14:00
9:35 AM,30.2,26.6,86,30.22,10.0,SSE,9.2,-,N/A,,Clear,160,2013-03-09 14:35:00
9:54 AM,32.0,26.6,80,30.22,10.0,South,9.2,-,N/A,,Clear,170,2013-03-09 14:54:00
10:14 AM,32.0,26.6,80,30.22,10.0,SSE,9.2,-,N/A,,Clear,160,2013-03-09 15:14:00
10:35 AM,33.8,26.6,75,30.21,10.0,SSE,11.5,-,N/A,,Clear,160,2013-03-09 15:35:00
10:54 AM,33.8,24.8,70,30.20,10.0,South,10.4,-,N/A,,Clear,170,2013-03-09 15:54:00
11:14 AM,33.8,24.8,70,30.21,10.0,South,12.7,-,N/A,,Clear,170,2013-03-09 16:14:00
11:34 AM,33.8,26.6,75,30.20,10.0,South,10.4,-,N/A,,Clear,170,2013-03-09 16:34:00
11:54 AM,33.8,26.6,75,30.20,10.0,South,12.7,-,N/A,,Clear,170,2013-03-09 16:54:00
12:15 PM,35.6,26.6,70,30.19,10.0,South,12.7,-,N/A,,Clear,170,2013-03-09 17:15:00
12:34 PM,33.8,26.6,75,30.19,10.0,South,12.7,-,N/A,,Clear,170,2013-03-09 17:34:00
12:55 PM,35.6,26.6,70,30.17,10.0,SSE,11.5,-,N/A,,Clear,150,2013-03-09 17:55:00
1:15 PM,35.6,26.6,70,30.16,10.0,SSE,11.5,18.4,N/A,,Clear,160,2013-03-09 18:15:00
1:34 PM,35.6,26.6,70,30.15,10.0,SSE,16.1,21.9,N/A,,Clear,150,2013-03-09 18:34:00
1:54 PM,37.4,26.6,65,30.13,10.0,SSE,16.1,20.7,N/A,,Clear,160,2013-03-09 18:54:00
2:15 PM,37.4,26.6,65,30.13,10.0,South,12.7,-,N/A,,Scattered Clouds,170,2013-03-09 19:15:00
2:34 PM,37.4,24.8,60,30.12,10.0,SSE,15.0,20.7,N/A,,Scattered Clouds,160,2013-03-09 19:34:00
2:55 PM,37.4,24.8,60,30.10,10.0,SSE,11.5,-,N/A,,Mostly Cloudy,150,2013-03-09 19:55:00
3:15 PM,37.4,24.8,60,30.09,10.0,SE,9.2,-,N/A,,Scattered Clouds,140,2013-03-09 20:15:00
3:34 PM,39.2,24.8,56,30.08,10.0,SE,9.2,-,N/A,,Scattered Clouds,130,2013-03-09 20:34:00
3:55 PM,39.2,24.8,56,30.07,10.0,ESE,8.1,-,N/A,,Mostly Cloudy,110,2013-03-09 20:55:00
4:15 PM,39.2,24.8,56,30.06,10.0,ESE,8.1,-,N/A,,Scattered Clouds,120,2013-03-09 21:15:00
4:34 PM,39.2,26.6,61,30.06,10.0,East,10.4,16.1,N/A,,Scattered Clouds,100,2013-03-09 21:34:00
4:55 PM,39.2,26.6,61,30.04,10.0,ESE,10.4,-,N/A,,Mostly Cloudy,110,2013-03-09 21:55:00
5:14 PM,37.4,26.6,65,30.03,10.0,ESE,10.4,-,N/A,,Overcast,110,2013-03-09 22:14:00
5:34 PM,37.4,26.6,65,30.02,10.0,ESE,11.5,17.3,N/A,,Overcast,120,2013-03-09 22:34:00
5:55 PM,37.4,28.4,70,30.02,10.0,ESE,9.2,-,N/A,,Overcast,120,2013-03-09 22:55:00
6:14 PM,37.4,28.4,70,30.01,10.0,ESE,10.4,-,N/A,,Overcast,120,2013-03-09 23:14:00
6:34 PM,37.4,28.4,70,30.01,10.0,SE,10.4,17.3,N/A,,Overcast,130,2013-03-09 23:34:00
6:55 PM,37.4,28.4,70,30.00,10.0,ESE,11.5,-,N/A,,Overcast,120,2013-03-09 23:55:00
7:14 PM,37.4,28.4,70,30.01,10.0,ESE,8.1,-,N/A,,Overcast,120,2013-03-10 00:14:00
7:35 PM,35.6,28.4,75,29.99,10.0,ESE,9.2,-,N/A,,Overcast,110,2013-03-10 00:35:00
7:55 PM,35.6,28.4,75,29.98,10.0,ESE,9.2,-,N/A,,Overcast,110,2013-03-10 00:55:00
8:14 PM,35.6,28.4,75,29.98,10.0,ESE,6.9,-,N/A,,Overcast,120,2013-03-10 01:14:00
8:35 PM,37.4,28.4,70,29.96,10.0,ESE,8.1,-,N/A,,Overcast,110,2013-03-10 01:35:00
8:55 PM,37.4,26.6,65,29.95,10.0,SE,11.5,18.4,N/A,,Overcast,140,2013-03-10 01:55:00
9:15 PM,37.4,26.6,65,29.95,10.0,SSE,15.0,19.6,N/A,,Overcast,150,2013-03-10 02:15:00
9:34 PM,37.4,28.4,70,29.95,7.0,SSE,13.8,25.3,N/A,Snow,Light Snow,150,2013-03-10 02:34:00
9:55 PM,35.6,30.2,81,29.95,4.0,SSE,15.0,-,N/A,Snow,Light Snow,150,2013-03-10 02:55:00
10:15 PM,33.8,30.2,87,29.95,1.5,SSE,13.8,18.4,N/A,Snow,Light Snow,150,2013-03-10 03:15:00
10:34 PM,33.8,32.0,93,29.95,4.0,SE,15.0,-,N/A,Snow,Light Snow,140,2013-03-10 03:34:00
10:55 PM,33.8,32.0,93,29.94,4.0,SSE,16.1,24.2,N/A,Snow,Light Snow,150,2013-03-10 03:55:00
11:14 PM,33.8,32.0,93,29.93,2.5,SE,16.1,24.2,N/A,Snow,Light Snow,140,2013-03-10 04:14:00
11:34 PM,33.8,32.0,93,29.92,3.0,SE,16.1,20.7,N/A,Snow,Light Snow,140,2013-03-10 04:34:00
11:54 PM,33.8,32.0,93,29.91,2.5,SE,15.0,-,N/A,Snow,Light Snow,140,2013-03-10 04:54:00